TimeCDT,TemperatureF,Dew PointF,Humidity,Sea Level PressureIn,VisibilityMPH,Wind Direction,Wind SpeedMPH,Gust SpeedMPH,PrecipitationIn,Events,Conditions,WindDirDegrees,DateUTC
12:15 AM,60.8,57.2,88,30.07,10.0,Calm,Calm,-,N/A,,Clear,0,2013-07-03 05:15:00
12:35 AM,60.8,59.0,94,30.07,10.0,Calm,Calm,-,N/A,,Clear,0,2013-07-03 05:35:00
12:55 AM,60.8,59.0,94,30.07,10.0,Calm,Calm,-,N/A,,Clear,0,2013-07-03 05:55:00
1:15 AM,59.0,59.0,100,30.07,10.0,Calm,Calm,-,N/A,,Clear,0,2013-07-03 06:15:00
1:35 AM,59.0,59.0,100,30.07,10.0,Calm,Calm,-,N/A,,Clear,0,2013-07-03 06:35:00
1:55 AM,59.0,59.0,100,30.06,10.0,Calm,Calm,-,N/A,,Clear,0,2013-07-03 06:55:00
2:15 AM,59.0,59.0,100,30.06,10.0,Calm,Calm,-,N/A,,Clear,0,2013-07-03 07:15:00
2:35 AM,57.2,57.2,100,30.05,10.0,Calm,Calm,-,N/A,,Clear,0,2013-07-03 07:35:00
2:55 AM,59.0,59.0,100,30.05,10.0,Calm,Calm,-,N/A,,Clear,0,2013-07-03 07:55:00
3:15 AM,59.0,59.0,100,30.05,10.0,Calm,Calm,-,N/A,,Mostly Cloudy,0,2013-07-03 08:15:00
3:35 AM,59.0,59.0,100,30.05,10.0,Calm,Calm,-,N/A,,Mostly Cloudy,0,2013-07-03 08:35:00
3:55 AM,59.0,59.0,100,30.05,10.0,Calm,Calm,-,N/A,,Scattered Clouds,0,2013-07-03 08:55:00
4:15 AM,57.2,57.2,100,30.05,10.0,Calm,Calm,-,N/A,,Scattered Clouds,0,2013-07-03 09:15:00
4:35 AM,57.2,57.2,100,30.05,10.0,Calm,Calm,-,N/A,,Scattered Clouds,0,2013-07-03 09:35:00
4:55 AM,57.2,57.2,100,30.05,10.0,Calm,Calm,-,N/A,,Scattered Clouds,0,2013-07-03 09:55:00
5:15 AM,57.2,57.2,100,30.05,10.0,Calm,Calm,-,N/A,,Scattered Clouds,0,2013-07-03 10:15:00
5:35 AM,57.2,57.2,100,30.05,7.0,Calm,Calm,-,N/A,,Scattered Clouds,0,2013-07-03 10:35:00
5:55 AM,55.4,55.4,100,30.06,7.0,Calm,Calm,-,N/A,,Scattered Clouds,0,2013-07-03 10:55:00
6:15 AM,55.4,55.4,100,30.06,10.0,Calm,Calm,-,N/A,,Clear,0,2013-07-03 11:15:00
6:35 AM,55.4,55.4,100,30.06,10.0,Calm,Calm,-,N/A,,Scattered Clouds,0,2013-07-03 11:35:00
6:55 AM,57.2,57.2,100,30.06,10.0,Calm,Calm,-,N/A,,Clear,0,2013-07-03 11:55:00
7:15 AM,59.0,59.0,100,30.06,10.0,Calm,Calm,-,N/A,,Clear,0,2013-07-03 12:15:00
7:35 AM,60.8,59.0,94,30.07,10.0,Calm,Calm,-,N/A,,Clear,0,2013-07-03 12:35:00
7:55 AM,62.6,60.8,94,30.07,10.0,Calm,Calm,-,N/A,,Clear,0,2013-07-03 12:55:00
8:15 AM,62.6,60.8,94,30.07,10.0,Calm,Calm,-,N/A,,Clear,0,2013-07-03 13:15:00
8:35 AM,64.4,62.6,94,30.08,10.0,Calm,Calm,-,N/A,,Clear,0,2013-07-03 13:35:00
8:55 AM,68.0,62.6,83,30.08,10.0,Calm,Calm,-,N/A,,Clear,0,2013-07-03 13:55:00
9:15 AM,69.8,64.4,83,30.08,10.0,Calm,Calm,-,N/A,,Clear,0,2013-07-03 14:15:00
9:35 AM,71.6,62.6,73,30.08,10.0,Calm,Calm,-,N/A,,Clear,0,2013-07-03 14:35:00
9:55 AM,73.4,59.0,61,30.07,10.0,Calm,Calm,-,N/A,,Clear,0,2013-07-03 14:55:00
10:15 AM,77.0,55.4,47,30.07,10.0,WNW,3.5,-,N/A,,Clear,290,2013-07-03 15:15:00
10:35 AM,77.0,55.4,47,30.07,10.0,WSW,3.5,-,N/A,,Clear,250,2013-07-03 15:35:00
10:55 AM,78.8,55.4,44,30.07,10.0,WSW,5.8,-,N/A,,Clear,250,2013-07-03 15:55:00
11:15 AM,78.8,55.4,44,30.07,10.0,Calm,Calm,-,N/A,,Clear,0,2013-07-03 16:15:00
11:35 AM,78.8,55.4,44,30.07,10.0,Calm,Calm,-,N/A,,Scattered Clouds,0,2013-07-03 16:35:00
11:55 AM,78.8,55.4,44,30.07,10.0,WNW,5.8,-,N/A,,Scattered Clouds,300,2013-07-03 16:55:00
12:15 PM,80.6,53.6,39,30.06,10.0,West,6.9,-,N/A,,Clear,260,2013-07-03 17:15:00
12:35 PM,80.6,53.6,39,30.06,10.0,West,8.1,-,N/A,,Clear,270,2013-07-03 17:35:00
12:55 PM,80.6,55.4,42,30.06,10.0,West,6.9,-,N/A,,Clear,260,2013-07-03 17:55:00
1:15 PM,80.6,55.4,42,30.05,10.0,West,4.6,-,N/A,,Clear,260,2013-07-03 18:15:00
1:35 PM,82.4,53.6,37,30.05,10.0,West,10.4,-,N/A,,Scattered Clouds,270,2013-07-03 18:35:00
1:55 PM,82.4,53.6,37,30.03,10.0,West,8.1,-,N/A,,Scattered Clouds,270,2013-07-03 18:55:00
2:15 PM,82.4,53.6,37,30.03,10.0,West,6.9,-,N/A,Thunderstorm,Clear,270,2013-07-03 19:15:00
2:35 PM,82.4,53.6,37,30.02,10.0,WNW,4.6,-,N/A,,Scattered Clouds,290,2013-07-03 19:35:00
2:55 PM,82.4,51.8,35,30.02,10.0,WNW,4.6,-,N/A,Thunderstorm,Scattered Clouds,300,2013-07-03 19:55:00
3:15 PM,84.2,51.8,33,30.01,10.0,West,9.2,-,N/A,,Scattered Clouds,260,2013-07-03 20:15:00
3:35 PM,82.4,51.8,35,30.02,10.0,West,4.6,-,N/A,,Scattered Clouds,280,2013-07-03 20:35:00
3:55 PM,80.6,55.4,42,30.02,10.0,Calm,Calm,-,N/A,,Scattered Clouds,0,2013-07-03 20:55:00
4:15 PM,75.2,55.4,50,30.03,10.0,NE,9.2,-,N/A,Rain-Thunderstorm,Light Thunderstorms and Rain,50,2013-07-03 21:15:00
4:35 PM,73.4,59.0,61,30.02,10.0,ENE,4.6,-,N/A,,Scattered Clouds,70,2013-07-03 21:35:00
4:55 PM,71.6,59.0,64,30.02,10.0,NNE,4.6,-,N/A,Thunderstorm,Scattered Clouds,30,2013-07-03 21:55:00
5:15 PM,71.6,60.8,69,30.01,10.0,East,5.8,-,N/A,Thunderstorm,Clear,90,2013-07-03 22:15:00
5:35 PM,71.6,59.0,64,30.02,10.0,SSE,6.9,-,N/A,Thunderstorm,Scattered Clouds,160,2013-07-03 22:35:00
5:55 PM,69.8,59.0,68,30.06,10.0,West,13.8,20.7,N/A,Rain-Thunderstorm,Thunderstorms and Rain,260,2013-07-03 22:55:00
6:15 PM,64.4,59.0,83,30.05,7.0,West,16.1,-,N/A,Rain-Thunderstorm,Thunderstorms and Rain,280,2013-07-03 23:15:00
6:35 PM,66.2,59.0,78,30.03,4.0,ESE,5.8,-,N/A,Rain,Light Rain,120,2013-07-03 23:35:00
6:55 PM,68.0,59.0,73,30.03,7.0,Calm,Calm,-,N/A,Rain,Light Rain,0,2013-07-03 23:55:00
7:15 PM,71.6,50.0,46,30.02,7.0,Calm,Calm,-,N/A,Rain-Thunderstorm,Thunderstorms and Rain,0,2013-07-04 00:15:00
7:35 PM,64.4,59.0,83,30.04,10.0,South,9.2,-,N/A,Rain-Thunderstorm,Light Thunderstorms and Rain,170,2013-07-04 00:35:00
7:55 PM,64.4,59.0,83,30.03,10.0,South,11.5,17.3,N/A,Thunderstorm,Thunderstorm,180,2013-07-04 00:55:00
8:15 PM,66.2,59.0,78,30.02,10.0,South,10.4,17.3,N/A,Rain,Light Rain,170,2013-07-04 01:15:00
8:35 PM,66.2,59.0,78,30.03,10.0,SW,5.8,-,N/A,,Scattered Clouds,230,2013-07-04 01:35:00
8:55 PM,64.4,57.2,77,30.03,10.0,South,11.5,16.1,N/A,,Clear,190,2013-07-04 01:55:00
9:15 PM,64.4,57.2,77,30.02,10.0,South,5.8,-,N/A,,Clear,170,2013-07-04 02:15:00
9:35 PM,64.4,57.2,77,30.02,10.0,South,3.5,-,N/A,,Clear,170,2013-07-04 02:35:00
9:55 PM,64.4,57.2,77,30.02,10.0,East,3.5,-,N/A,,Clear,80,2013-07-04 02:55:00
10:15 PM,62.6,57.2,82,30.02,10.0,Calm,Calm,-,N/A,,Clear,0,2013-07-04 03:15:00
10:35 PM,60.8,59.0,94,30.02,10.0,Calm,Calm,-,N/A,,Clear,0,2013-07-04 03:35:00
10:55 PM,60.8,60.8,100,30.02,10.0,Calm,Calm,-,N/A,,Clear,0,2013-07-04 03:55:00
11:15 PM,60.8,60.8,100,30.02,10.0,Calm,Calm,-,N/A,,Clear,0,2013-07-04 04:15:00
11:35 PM,60.8,60.8,100,30.03,10.0,Calm,Calm,-,N/A,,Clear,0,2013-07-04 04:35:00
11:55 PM,60.8,60.8,100,30.03,10.0,Calm,Calm,-,N/A,,Clear,0,2013-07-04 04:55:00